Starlink 11366

operational
NORAD ID: 61693 Int'l Des: 2024-195 Owner: SPXS Country: US Constellation: starlink
LEOCIRCULAR

Über Starlink 11366

Beschreibung wird geladen...

Live-Position

3D-Globus wird geladen...

Nächste Überflüge

Höhenverlauf

Altitude vs Time

uPlot chart will show altitude changes over time

Zweizeiliger Elementsatz

1 61693U 24195G 25257.07211987 .00000149 00000-0 60843-5 0 9992
2 61693 53.1580 176.9342 0000960 66.9342 293.1777 15.69717771 51290
Epoch: 14. Sept. 2025 • Age: 30 hours

Aktueller Status

Höhe 378.8 km
Geschwindigkeit 7.68 km/s
Subsatellitenpunkt -53.30°S, 34.09°W
Startdatum 30. Okt. 2024
Alter 0.8 years
Typ internet

Technische Details

Klassifizierung Payload
Masse 960.00 kg
Trockenmasse 910.00 kg
Gesamtmasse 960.00 kg
Länge 0.30 m
Durchmesser 4.10 m
Spannweite 29.00 m
Form Box + pan
Hersteller SPXS
Bus-Typ Starlink V2MD
Phasenstatus In Orbit
Besitzer/Staat SPXS/US

Große Konstellationen

Loading constellations...